Погода в Селезнях

Россия / Смоленская область     55°38′49″N   31°28′28″E
темп.,
°C
ветер,
м/с
пор.,
м/с
влажн.,
%
обл.,
%
осадки,
мм/ч
давл.,
гПа
погр.,
м
11 апреля, вс
вс1100:00+6ююз2675100 0.1 1021232
03:00+5ююз119195 0.9 102331
06:00+5св129369 0.3 1024142
09:00+6ююв138299 0.4 1025243
12:00+10ююз146896 0.1 1026598
15:00+14ююз4654100 0.1 10271231
18:00+13ю2362100 0.0 1026126
21:00+9ююв387997 0.0 1028141
12 апреля, пн
пн1200:00+7ююв398343 0.0 1029180
03:00+6ююв27835 0.0 1030121
06:00+4ююв26854 0.0 1029109
09:00+9ююв48640 0.0 1029346
12:00+14юв47440 0.0 10271061
15:00+15юв463735 0.0 10241490
18:00+13юв3648100 0.0 1023244
21:00+10юв3863100 0.0 1023376
13 апреля, вт
вт1300:00+8ююв3887100 0.0 1022406
03:00+8юв2597100 1.0 1022217
06:00+7ююв1298100 0.1 102181
09:00+9ююв139496 0.8 1020169
12:00+11ююв348481 0.1 1020581
15:00+12юв238148 0.1 1019443
18:00+13юв23784 0.0 1018459
21:00+8юв22960 0.0 101824
14 апреля, ср
ср1400:00+7юв11955 0.0 101810
03:00+6ссв11955 0.0 101810
06:00+5ссв239830 0.0 101975
09:00+8ссв358660 0.0 1019372
12:00+10ссв4477100 0.0 1020722
15:00+10ссв457899 0.0 1020664
18:00+10св4779100 0.0 1019673
21:00+8св41082100 0.0 1020588
15 апреля, чт
чт1500:00+6ссв41085100 0.8 1021422
03:00+5ссв4980100 1.0 1021394
06:00+5ссв41081100 0.1 1022474
09:00+4ссв4985100 0.1 1023462
12:00+6ссв477679 0.0 1023671
15:00+10ссв564317 0.0 10221195
18:00+8ссв484373 0.0 10231228
21:00+5ссв412530 0.0 1024557